sat.trackr.live / text

‹ back to catalog

UNKNOWN

NORAD 85010

UNKNOWN UNKNOWN UNKNOWN

§ Identity

Operator
Country
Launch date
Launch site
Launch vehicle
Mass (kg)
RCS (m²)

External: N2YO · Heavens-Above

§ Orbital elements

Epoch: 2026-05-21T14:08:44.471040Z

Period
104.70 min
Inclination
99.2385°
Eccentricity
0.0024414
Mean motion
13.75409525 rev/d
Perigee alt
962.2 km
Apogee alt
998.2 km
Semi-major
7,358.4 km
B*
7.5070e-4
RAAN
3.5809°
Arg perigee
190.4098°
Mean anomaly
196.8169°
Rev number
62,589

§ Raw data

UNKNOWN1 85010U          26141.58940360  .00000680  00000+0  75070-3 0  99982 85010  99.2385   3.5809 0024414 190.4098 196.8169 13.75409525625894

JSON: /api/v1/satellites/85010 · /tle

For live sub-satellite position, see the globe view (requires WebGL).

§ Visibility from observer

Set your observer location to see the next 7 days of passes ≥ 10°. The values pass through the URL so the page stays shareable.

No JS? Fill the form by hand. The geolocation button needs JavaScript.